Regional Weather Roundup
Issued by NWS Green Bay, WI

Home | Current Version | Previous Version | Text Only | Print | Product List | Glossary On
Versions: 1 2 3 4 5 6 7 8 9 10 11 12 13 14 15 16 17 18 19 20 21 22 23 24 25 26 27 28 29 30 31 32 33 34 35 36 37 38 39 40 41 42 43 44 45 46 47 48 49 50
000
ASUS43 KGRB 261811
RWRGRB

NORTH-CENTRAL AND NORTHEAST WISCONSIN REGIONAL WEATHER ROUNDUP
NATIONAL WEATHER SERVICE GREEN BAY WI
100 PM CDT FRI MAY 26 2017

WIZ005-009-010>012-018-019-261900-
NORTH CENTRAL WISCONSIN

CITY           SKY/WX    TMP DP  RH WIND       PRES   REMARKS
IRONWOOD       CLOUDY    66  53  63 S7        29.79S
MANITOWISH WTR CLOUDY    66  54  65 SE10      29.80F
ARBOR VITAE    MOSUNNY   64  54  68 S8        29.81S
EAGLE RIVER    CLOUDY    64  52  63 S5        29.82S
LAND O LAKES   CLOUDY    69  51  51 S7        29.83S
RHINELANDER    CLOUDY    69  54  58 S6        29.82F
PHILLIPS       RAIN      65  55  68 SE7       29.79S
ANTIGO         CLOUDY    66  55  68 S7        29.83S
TOMAHAWK       CLOUDY    67  55  65 S3        29.82S
MERRILL        PTSUNNY   67  54  64 S6        29.82S
$$

WIZ013-073-261900-
NORTHEAST WISCONSIN

CITY           SKY/WX    TMP DP  RH WIND       PRES   REMARKS
IRON MOUNTAIN  CLOUDY    69  52  54 VRB7      29.81F
MARINETTE      MOSUNNY   66  52  60 S9        29.85S
OCONTO         MOSUNNY   67  54  61 S6        29.83F
$$

WIZ017-030-035>037-045-261900-
CENTRAL WISCONSIN

CITY           SKY/WX    TMP DP  RH WIND       PRES   REMARKS
MEDFORD        CLOUDY    67  56  68 S12       29.81S
WAUSAU         CLOUDY    68  55  63 S8        29.81S
MOSINEE        CLOUDY    66  57  72 S6        29.84R
MARSHFIELD     CLOUDY    69  54  58 S8        29.80S
WISC RAPIDS    CLOUDY    71  55  56 SE8       29.81F
STEVENS POINT  CLOUDY    67  55  64 SE8       29.82F
WAUPACA        PTSUNNY   71  57  61 S8        29.83S
SHAWANO        PTSUNNY   72  57  60 S5        29.82F
CLINTONVILLE   PTSUNNY   70  52  52 S7        29.82F
WAUTOMA        MOSUNNY   70  55  59 SE10      29.81F
$$

WIZ038-039-048-051-261900-
FOX VALLEY

CITY           SKY/WX    TMP DP  RH WIND       PRES   REMARKS
NWS GREEN BAY  PTSUNNY   69  58  67 S5        29.83S
APPLETON       PTSUNNY   66  52  59 SE8       29.82F
OSHKOSH        CLOUDY    68  55  63 SE10      29.82S
FOND DU LAC    CLOUDY    70  55  59 E9        29.82F
$$

WIZ022-050-052-261900-
EAST CENTRAL WISCONSIN

CITY           SKY/WX    TMP DP  RH WIND       PRES   REMARKS
EPHRAIM        FAIR      65  54  67 S8        29.84S
WASHINGTON ISL FAIR      62  53  72 S5        29.84F
STURGEON BAY   MOSUNNY   64  53  67 SE12      29.85F
MANITOWOC      CLOUDY    61  52  72 SE9       29.86F
SHEBOYGAN      CLOUDY    61  54  77 SE7       29.85F
$$

LMZ563-521-522-541>543-261900-
LAKESHORE

STATION/POSITION TIME  TEMP    WIND        PRES    VSBY  WAVE
                       AIR SEA DIR/SP/G                  HT/PER
                 (UTC) (F)     (DEG/KT/KT) (MB)    (MI)  (FT/S)
SHEBOYGAN LKSHOR 1800   47     140/  2/  2 1010.9F
KEWAUNEE LKSHORE 1748   47     160/  7/  9 1011.1R
NORTHPORT PIER   1740   55     350/  3/  4 1010.8S
N MID LAKE BUOY  1650   45 43  200/  8/  8 1012.0          0
CHAMBERS ISLAND  1740   60     320/  6/  7 1010.2F
MENOMINEE LKSHOR 1748           80/  3/  4 1009.8F
$$




USA.gov is the U.S. government's official web portal to all federal, state and local government web resources and services.